Location: Gälforsberget
(66.6500°N, 22.4167°E)
Time: 06:34:33
(UTC+00:00)

Cosmos 1633 Rocket - Pass Details

Date: 11 April 2026
Orbit: 599 x 617 km, 82.5° (Epoch: 12 May)

Event Time Altitude Azimuth Distance (km) Brightness Sun altitude
Rises 18:54:04 0° 203° (SSW) 2,885 6.4 -5.3°
Reaches altitude 10° 18:56:18 10° 206° (SSW) 1,982 5.6 -5.5°
Maximum altitude 19:00:41 73° 292° (WNW) 650 3.4 -5.8°
Drops below altitude 10° 19:05:05 10° 17° (NNE) 1,984 6.0 -6.2°
Sets 19:07:19 0° 20° (NNE) 2,890 6.8 -6.3°
